FW1574 Weather Reports


Display with metric or nautical units.
time (UTC)temp
F
wind
direction
speed
MPH
gust
MPH
rain 1hr
in
rain 24hr
in
rain mn
in
humidity
%
barometer
mb
20260501234038 64 109 0.0 0.0 0.00 0.00 0.00 64 1011.9
20260501233538 64 109 0.0 0.0 0.00 0.00 0.00 63 1012.0
20260501233038 64 109 0.0 0.0 0.00 0.00 0.00 61 1011.9
20260501232538 64 109 0.0 0.0 0.00 0.00 0.00 60 1012.0
20260501232036 65 109 0.0 0.0 0.00 0.00 0.00 62 1011.9
20260501231536 65 109 0.0 0.0 0.00 0.00 0.00 59 1011.8
20260501231035 65 109 0.0 0.0 0.00 0.00 0.00 57 1011.9
20260501230535 65 109 0.0 2.0 0.00 0.00 0.00 60 1011.7
20260501230040 66 109 0.0 2.0 0.00 0.00 0.00 56 1011.4
20260501225535 66 111 1.0 2.0 0.00 0.00 0.00 56 1011.3
20260501225035 65 115 0.0 1.0 0.00 0.00 0.00 56 1011.3
20260501224537 66 115 0.0 0.0 0.00 0.00 0.00 59 1011.2
20260501224035 66 115 0.0 0.0 0.00 0.00 0.00 56 1011.1
20260501223536 66 115 0.0 3.0 0.00 0.00 0.00 56 1011.2
20260501223035 67 115 1.0 3.0 0.00 0.00 0.00 54 1011.2
20260501222538 67 213 0.0 0.0 0.00 0.00 0.00 53 1011.2
20260501222034 67 213 0.0 0.0 0.00 0.00 0.00 53 1011.2
20260501221533 67 213 0.0 1.0 0.00 0.00 0.00 53 1011.0
20260501221033 67 213 0.0 1.0 0.00 0.00 0.00 50 1011.1
20260501220534 67 213 0.0 2.0 0.00 0.00 0.00 53 1011.1
20260501220040 67 213 0.0 2.0 0.00 0.00 0.00 51 1011.1
20260501215532 67 213 0.0 2.0 0.00 0.00 0.00 47 1011.3
20260501215031 67 213 0.0 1.0 0.00 0.00 0.00 50 1011.4
20260501214540 67 213 0.0 1.0 0.00 0.00 0.00 48 1011.6
20260501214030 68 253 0.0 2.0 0.00 0.00 0.00 51 1011.8
20260501213530 68 253 1.0 2.0 0.00 0.00 0.00 49 1011.8
20260501213028 67 227 0.0 2.0 0.00 0.00 0.00 51 1011.8
20260501212528 67 230 0.0 1.0 0.00 0.00 0.00 55 1011.9
20260501212027 67 150 0.0 1.0 0.00 0.00 0.00 55 1012.0
20260501211526 67 150 0.0 2.0 0.00 0.00 0.00 55 1012.0
20260501211025 67 150 0.0 2.0 0.00 0.00 0.00 55 1012.1
20260501210525 67 150 0.0 3.0 0.00 0.00 0.00 51 1012.2
20260501210025 67 150 0.0 3.0 0.00 0.00 0.00 57 1012.2
20260501205524 67 57 0.0 3.0 0.00 0.00 0.00 52 1012.2
20260501205023 67 203 0.0 0.0 0.00 0.00 0.00 52 1012.3
20260501204524 67 203 0.0 0.0 0.00 0.00 0.00 49 1012.3
20260501204025 67 203 0.0 0.0 0.00 0.00 0.00 56 1012.4
20260501203523 67 203 0.0 1.0 0.00 0.00 0.00 49 1012.3
20260501203023 67 203 0.0 1.0 0.00 0.00 0.00 46 1012.5
20260501202522 67 204 0.0 2.0 0.00 0.00 0.00 49 1012.5
20260501202021 67 239 0.0 2.0 0.00 0.00 0.00 48 1012.6
20260501201521 67 246 0.0 1.0 0.00 0.00 0.00 46 1012.6
20260501201019 67 236 0.0 0.0 0.00 0.00 0.00 46 1012.8
20260501200518 67 243 0.0 0.0 0.00 0.00 0.00 47 1012.9
20260501200018 67 219 0.0 0.0 0.00 0.00 0.00 51 1013.0
20260501195518 67 182 0.0 0.0 0.00 0.00 0.00 49 1013.0
20260501195018 66 182 0.0 0.0 0.00 0.00 0.00 52 1013.0
20260501194520 66 180 0.0 0.0 0.00 0.00 0.00 47 1013.1
20260501194016 67 184 0.0 0.0 0.00 0.00 0.00 43 1013.1
20260501193516 67 181 0.0 0.0 0.00 0.00 0.00 44 1013.2
20260501193016 67 234 0.0 2.0 0.00 0.00 0.00 49 1013.2
20260501192514 66 234 0.0 2.0 0.00 0.00 0.00 45 1013.2
20260501192014 66 233 0.0 2.0 0.00 0.00 0.00 47 1013.3
20260501191514 66 233 0.0 2.0 0.00 0.00 0.00 48 1013.3
20260501191018 66 233 0.0 1.0 0.00 0.00 0.00 50 1013.4
20260501190513 66 233 0.0 1.0 0.00 0.00 0.00 56 1013.3
20260501190029 66 233 0.0 1.0 0.00 0.00 0.00 46 1013.4
20260501185514 65 233 0.0 2.0 0.00 0.00 0.00 47 1013.3
20260501185012 66 233 0.0 2.0 0.00 0.00 0.00 49 1013.3
20260501184514 66 233 0.0 2.0 0.00 0.00 0.00 45 1013.2
20260501184012 66 242 0.0 2.0 0.00 0.00 0.00 42 1013.3
20260501183512 66 289 0.0 2.0 0.00 0.00 0.00 46 1013.4
20260501183012 65 293 0.0 2.0 0.00 0.00 0.00 48 1013.4
20260501182510 65 293 0.0 2.0 0.00 0.00 0.00 50 1013.3
20260501182010 65 292 0.0 1.0 0.00 0.00 0.00 50 1013.4
20260501181519 65 292 0.0 0.0 0.00 0.00 0.00 46 1013.6
20260501181010 65 292 0.0 1.0 0.00 0.00 0.00 51 1013.6
20260501180517 66 292 0.0 1.0 0.00 0.00 0.00 49 1013.7
20260501180012 66 292 0.0 2.0 0.00 0.00 0.00 52 1013.7
20260501175510 66 292 0.0 2.0 0.00 0.00 0.00 52 1013.6
20260501175015 66 316 0.0 2.0 0.00 0.00 0.00 49 1013.6
20260501174510 66 316 0.0 2.0 0.00 0.00 0.00 53 1013.7
20260501174011 65 339 0.0 2.0 0.00 0.00 0.00 48 1013.7
20260501173510 66 324 1.0 2.0 0.00 0.00 0.00 52 1013.7
20260501173009 66 128 0.0 2.0 0.00 0.00 0.00 46 1013.9
20260501172510 65 161 0.0 2.0 0.00 0.00 0.00 48 1013.7
20260501172008 65 248 0.0 2.0 0.00 0.00 0.00 47 1013.7
20260501171508 65 249 0.0 2.0 0.00 0.00 0.00 52 1013.7
20260501171007 65 249 0.0 2.0 0.00 0.00 0.00 46 1013.9
20260501170508 66 249 1.0 2.0 0.00 0.00 0.00 48 1014.0
20260501170008 66 249 0.0 2.0 0.00 0.00 0.00 45 1014.0
20260501165511 66 249 0.0 2.0 0.00 0.00 0.00 51 1013.9
20260501165011 66 249 1.0 4.0 0.00 0.00 0.00 50 1014.0
20260501164507 66 255 1.0 3.0 0.00 0.00 0.00 47 1013.9
20260501164008 65 295 0.0 2.0 0.00 0.00 0.00 49 1014.1
20260501163513 65 220 0.0 2.0 0.00 0.00 0.00 49 1014.0
20260501163008 65 225 0.0 3.0 0.00 0.00 0.00 51 1014.1
20260501162507 66 5 1.0 3.0 0.00 0.00 0.00 53 1014.1